RH
81 84 87 88 88 89 87 88 83 81 80 79 76 77 68 57 57 63 60 60 57 58 58 47 38 45 54 56 54 52 48 45 43 43 46 50 56 57 54 48 50 54 51
77 76 86 86 85 84 85 82 84 83 82 78 73 61 55 62 64 66 62 48 50 51 46 50 56 69 69 60 50 46 43 41 44 41 45 48 49 46 40 45 43 44 44
74 72 75 79 80 81 81 82 82 83 81 79 70 66 66 66 67 64 52 54 61 62 61 61 71 73 66 55 50 51 47 43 38 39 40 39 36 32 31 35 34 36 39
69 71 73 79 80 81 82 79 80 83 78 76 73 71 67 66 63 61 67 70 70 69 72 69 66 61 59 57 57 57 57 44 37 35 31 29 29 26 24 25 26 26 27
68 70 71 77 78 81 81 82 80 77 75 72 70 65 62 61 63 69 70 72 78 75 66 60 52 53 57 55 55 54 51 34 30 30 28 29 26 26 27 26 22 23 24
64 66 69 72 79 81 80 81 81 79 72 71 71 70 66 60 60 62 61 62 61 55 47 43 41 44 45 50 55 44 36 32 31 31 28 29 29 29 25 25 25 26 28
59 64 64 62 72 75 75 79 79 75 66 66 70 78 73 64 63 62 57 56 54 41 35 36 35 35 36 44 41 31 35 33 33 32 32 31 30 30 31 34 36 39 40
58 60 66 67 66 69 74 77 74 62 56 64 69 75 74 70 68 62 57 49 38 31 32 30 28 30 34 35 34 37 35 36 35 35 34 34 37 35 33 33 34 37 39
54 58 62 63 68 73 76 76 67 56 55 53 58 69 64 62 61 60 55 41 30 27 25 24 26 32 37 37 40 42 39 40 41 40 35 33 33 34 35 37 39 41 44
54 56 60 61 65 70 69 62 57 51 45 48 47 54 59 65 68 61 47 34 27 22 21 22 28 31 37 39 40 41 42 42 43 41 35 33 35 38 40 40 41 41 41
59 58 65 62 64 68 69 62 57 53 47 48 46 48 58 59 60 58 40 30 31 28 30 34 34 35 37 39 41 42 42 41 39 36 35 36 37 38 40 43 47 51 54
75 62 65 63 65 66 63 59 60 55 50 47 45 45 50 56 54 47 36 33 37 39 45 46 43 39 39 39 41 43 43 40 36 36 36 37 39 43 47 50 53 58 63
73 75 69 70 68 65 59 58 64 64 64 58 50 44 44 52 50 43 43 38 34 39 45 45 44 45 45 46 43 42 39 36 36 35 35 38 43 47 52 55 58 62 63
72 78 69 79 68 64 67 69 68 69 66 62 55 43 42 49 49 45 44 44 42 45 43 43 46 46 46 46 44 37 34 34 34 32 34 39 46 51 55 58 59 60 65
68 71 68 71 71 71 71 74 72 62 60 57 55 51 42 49 48 45 42 48 45 44 45 46 48 48 48 43 38 35 32 34 32 30 36 42 48 53 56 58 61 68 73
62 62 66 70 75 80 81 67 69 63 59 59 55 53 45 45 48 48 46 47 47 40 42 46 47 47 44 38 36 32 32 33 33 36 41 45 48 54 56 61 70 78 81
58 59 65 67 73 74 76 61 66 63 61 63 65 61 48 43 51 49 43 40 42 42 41 45 46 44 39 30 28 28 30 31 32 38 44 48 55 53 52 53 66 77 81
58 58 59 59 65 70 66 72 67 62 63 65 68 57 48 44 48 45 46 37 38 39 44 47 43 40 36 39 35 30 31 32 31 39 39 42 48 51 55 56 60 67 79
54 55 57 56 60 67 64 60 71 64 69 69 68 55 50 43 48 47 42 41 37 38 43 42 42 39 36 39 42 43 39 38 37 34 42 45 46 47 54 58 59 66 78
51 52 59 55 55 59 59 70 67 68 67 70 66 52 49 43 45 48 42 39 38 41 45 49 44 41 38 35 37 43 43 42 45 39 47 53 61 63 64 66 67 65 73
49 52 54 59 56 56 60 75 71 72 68 68 57 49 44 40 48 57 45 33 38 40 42 43 45 44 39 39 37 40 40 43 44 46 52 57 63 67 66 69 72 69 69
46 48 50 54 55 54 58 58 66 62 68 67 59 55 51 46 43 51 55 37 33 41 38 39 44 44 44 44 47 47 56 59 59 60 64 68 70 73 74 71 71 71 70
52 45 44 49 51 55 56 58 60 64 67 70 71 59 53 47 43 50 58 51 36 43 45 47 46 47 49 51 53 58 55 53 62 69 66 60 66 66 73 74 63 66 65
53 48 44 46 47 51 57 57 62 67 61 59 61 53 48 46 45 55 52 52 47 47 53 52 55 48 51 55 58 54 58 61 66 67 59 61 58 64 68 71 75 71 72
56 50 44 40 47 51 50 58 73 61 67 66 59 50 48 47 46 45 52 52 61 55 57 56 51 52 58 61 60 56 54 52 59 62 58 51 54 53 55 60 64 68 63
59 55 47 42 38 45 50 49 61 62 66 60 53 49 48 45 45 45 46 47 46 61 48 49 51 50 52 51 51 51 51 50 58 52 49 46 44 46 47 52 47 54 57